Weather in Kalinino

Russia / Republic of Khakassia     53°45′33″N   91°24′01″E
temp.,
°C
wind,
m/s
gust,
m/s
humid.,
%
clouds,
%
prec.,
mm/h
press.,
hPa
HPBL,
m
14 may, fri
fri1401:00+11se113998 0.0 101310
04:00+10se1144100 0.0 101310
07:00+11se114430 0.0 101489
10:00+15s33355 0.0 1013644
13:00+20wnw233343 0.0 10122276
16:00+13nnw6866100 1.3 1015639
19:00+14nw37515 1.7 10161474
22:00+11nnw245386 0.0 102086
15 may, sat
sat1501:00+9w2255100 0.0 102214
04:00+9wsw1155100 0.0 102310
07:00+10sw125399 0.0 1023127
10:00+14sw454886 0.0 1022734
13:00+18wsw463466 0.0 10201496
16:00+20nw353477 0.0 10181723
19:00+15ne3367100 0.2 1019100
22:00+14s236877 0.0 101956
16 may, sun
sun1601:00+11s227462 0.0 101912
04:00+13ssw3964100 0.0 1017209
07:00+13w2668100 0.5 1018250
10:00+14ssw496698 1.9 1016446
13:00+21wsw79396 1.9 10131705
16:00+23wsw9103770 0.0 10111725
19:00+22wsw81344100 0.0 10091351
22:00+14nw51383100 2.6 1010476
17 may, mon
mon1701:00+15w4880100 5.8 1010384
04:00+14n2382100 0.0 1011135
07:00+12nne357499 0.0 1013410
10:00+13nne1172100 0.0 1013407
13:00+15ne2168100 0.0 1012649
16:00+12ne3485100 0.6 1012255
19:00+12s1188100 2.6 1012196
22:00+11sse1196100 2.0 101274
18 may, tue
tue1801:00+11se119661 2.6 101221
04:00+10s119778 0.1 101217
07:00+12se1293100 0.1 1010155
10:00+17sw5968100 0.0 1006933
13:00+17wsw81371100 1.9 1004772
16:00+20wnw61256100 0.1 1002391
19:00+13nnw587212 1.8 1005478
22:00+10n2483100 0.1 1008179